This demonstration page uses our WeatherBlox Daily Observations layout. Learn more.

Left ArrowRight Arrow

Hourly Observations for May 31, 2021

Temp ( °F °C ) Dew Point ( °F °C ) Humidity (%) Winds ( mph kmh ) Pressure ( in mb ) Visibility ( mi km ) Precip ( " mm )
12:59 am 00:59 Cloudy 57 13.9 47 8.3 69 69 NW 13 20 30.25 1025 10 16 0.00 0.00
1:59 am 01:59 Cloudy 57 13.9 47 8.3 69 69 NW 14 22 30.25 1025 10 16 0.00 0.00
2:59 am 02:59 Mostly Cloudy 57 13.9 47 8.3 69 69 NW 10 17 30.25 1025 10 16 0.00 0.00
3:27 am 03:27 Partly Cloudy 56 13.3 48 8.9 75 75 WNW 9 15 30.26 1025 10 16 0.00 0.00
3:59 am 03:59 Mostly Clear 55 12.8 48 8.9 77 77 NW 9 15 30.26 1025 10 16 0.00 0.00
4:59 am 04:59 Mostly Clear 55 12.8 48 8.9 77 77 NNW 13 20 30.27 1025 10 16 0.00 0.00
5:59 am 05:59 Mostly Sunny 55 12.8 47 8.3 74 74 NNW 13 20 30.28 1026 10 16 0.00 0.00
6:59 am 06:59 Mostly Sunny 56 13.3 47 8.3 72 72 NNW 12 19 30.31 1026 10 16 0.00 0.00
7:59 am 07:59 Mostly Sunny 59 15 47 8.3 64 64 NNW 8 13 30.32 1027 10 16 0.00 0.00
8:59 am 08:59 Mostly Sunny 61 16.1 48 8.9 63 63 NNW 9 15 30.33 1027 10 16 0.00 0.00
9:59 am 09:59 Mostly Sunny 63 17.2 49 9.4 60 60 NNW 9 15 30.33 1027 10 16 0.00 0.00
10:59 am 10:59 Sunny 66 18.9 49 9.4 54 54 WNW 9 15 30.33 1027 10 16 0.00 0.00
11:59 am 11:59 Mostly Sunny 68 20 50 10 53 53 N 12 19 30.32 1027 10 16 0.00 0.00
12:59 pm 12:59 Mostly Cloudy 68 20 51 10.6 55 55 VRB 3 6 30.32 1027 10 16 0.00 0.00
1:59 pm 13:59 Mostly Cloudy 69 20.6 52 11.1 55 55 ENE 5 7 30.30 1026 10 16 0.00 0.00
2:59 pm 14:59 Mostly Cloudy 69 20.6 52 11.1 55 55 NE 5 7 30.30 1026 10 16 0.00 0.00
3:59 pm 15:59 Mostly Cloudy 71 21.7 53 11.7 53 53 ENE 6 9 30.29 1026 10 16 0.00 0.00
4:59 pm 16:59 Mostly Cloudy 72 22.2 53 11.7 52 52 N 7 11 30.29 1026 10 16 0.00 0.00
5:59 pm 17:59 Mostly Cloudy 72 22.2 51 10.6 48 48 VRB 3 6 30.28 1025 10 16 0.00 0.00
6:59 pm 18:59 Partly Cloudy 71 21.7 50 10 47 47 WSW 3 6 30.28 1026 10 16 0.00 0.00
7:59 pm 19:59 Mostly Sunny 68 20 54 12.2 61 61 E 5 7 30.30 1026 10 16 0.00 0.00
8:59 pm 20:59 Partly Cloudy 65 18.3 54 12.2 68 68 SSE 6 9 30.31 1027 10 16 0.00 0.00
9:59 pm 21:59 Mostly Clear 62 16.7 54 12.2 75 75 SSE 7 11 30.32 1027 10 16 0.00 0.00
10:59 pm 22:59 Mostly Clear 61 16.1 54 12.2 78 78 SSE 5 7 30.32 1027 10 16 0.00 0.00
11:59 pm 23:59 Clear 60 15.6 54 12.2 80 80 S 6 9 30.32 1027 10 16 0.00 0.00

Powered by AerisWeather